Location: Tamazert
(32.6352°N, 5.2072°W)
Time: 01:03:15
(UTC+00:00)

Altair - Pass Details

Date: 06 October 2022
Orbit: 1501 x 1682 km, 47.2° (Epoch: 05 December)

Event Time Altitude Azimuth Distance (km) Brightness Sun altitude
Exits shadow 05:19:49 16° 268° (W) 3,328 8.6 -13.1°
Maximum altitude 05:27:27 48° 337° (NNW) 2,033 8.0 -11.5°
Drops below altitude 10° 05:37:04 10° 50° (NE) 3,916 10.4 -9.5°
Sets 05:40:28 0° 56° (NE) 4,920 11.2 -8.8°
